Location: Newark
(25.4800°N, 85.7200°E)
Time: 12:27:34
(UTC+00:00)

Vanguard 1 Rocket - Visible Passes

Search period start: 19 August 2019 00:00
Search period end: 29 August 2019 00:00
Orbit: 652 x 4224 km, 34.3° (Epoch: 18 August)

Date Brightness Start Highest point End Pass type
(mag) Time Alt. Az. Time Alt. Az. Time Alt. Az.
19 Aug 8.5 22:17:51 20° WNW 22:20:59 38° N 22:28:24 10° ENE visible
20 Aug 8.3 21:10:42 36° NNE 21:10:42 36° NNE 21:15:14 10° ENE visible
21 Aug 8.6 22:20:50 17° NW 22:24:19 37° N 22:31:33 10° ENE visible
22 Aug 8.4 21:13:41 32° NNE 21:13:41 32° NNE 21:18:14 10° ENE visible
23 Aug 8.6 22:23:51 15° NW 22:27:35 38° NNE 22:34:48 10° ENE visible
24 Aug 8.5 21:16:43 30° NNE 21:16:43 30° NNE 21:21:21 10° ENE visible
25 Aug 8.4 22:26:55 15° NW 22:30:48 41° NNE 22:38:05 10° E visible
26 Aug 8.5 21:19:51 30° NNE 21:19:51 30° NNE 21:24:34 10° ENE visible
27 Aug 10.3 15:10:16 10° SSW 15:11:37 13° S 15:11:37 13° S visible
27 Aug 8.2 22:30:05 15° NW 22:33:57 48° NNE 22:41:22 10° E visible
28 Aug 10.1 13:59:55 10° S 14:04:37 13° SSE 14:04:57 13° SSE visible
28 Aug 8.4 21:23:04 32° NNE 21:23:04 32° NNE 21:27:53 10° ENE visible
